Regional Weather Roundup
Issued by NWS

Home | Current Version | Previous Version | Graphics & Text | Print | Product List | Glossary On
Versions: 1 2 3 4 5 6 7 8 9 10 11 12 13 14 15 16 17 18 19 20 21 22 23 24 25 26 27 28 29 30 31 32 33 34 35 36 37 38 39 40 41 42 43 44 45 46 47 48 49 50
000
ASUS43 KMKX 300511
RWRWI

WISCONSIN REGIONAL WEATHER ROUNDUP
NATIONAL WEATHER SERVICE MILWAUKEE/SULLIVAN WI
1100 PM CST THU JAN 29 2015

NOTE: "FAIR" INDICATES FEW OR NO CLOUDS BELOW 12,000 FEET WITH NO
SIGNIFICANT WEATHER AND/OR OBSTRUCTIONS TO VISIBILITY.

WIZ001-002-006>008-014>016-023>028-300600-
NORTHWEST WISCONSIN

CITY           SKY/WX    TMP DP  RH WIND       PRES   REMARKS
SUPERIOR ARPT  CLEAR      9   1  68 N12       30.52S WCI  -6
ASHLAND        CLOUDY    14   4  64 NW10      30.47R WCI   1
HAYWARD        CLEAR     10   1  67 NW6       30.45R WCI   0
SIREN          CLEAR     10   2  69 N8        30.51R WCI  -2
CUMBERLAND     CLEAR      9   1  72 N9        30.45S WCI  -5
RICE LAKE      CLEAR     10   2  70 NW6       30.48R WCI   1
CHETEK         CLEAR     10   2  71 CALM      30.47R
LADYSMITH      CLOUDY    14   6  70 NW9       30.45R WCI   2
EAU CLAIRE     CLEAR     14   3  61 N8        30.47R WCI   3
MENOMONIE      CLEAR     15   6  69 NW10      30.48R WCI   2
NEW RICHMOND   CLEAR     12   5  73 N6        30.50R WCI   2
OSCEOLA        CLEAR     13   5  71 N7        30.53S WCI   3
$$

WIZ003>005-009-010-017-018-300600-
NORTH CENTRAL WISCONSIN

CITY           SKY/WX    TMP DP  RH WIND       PRES   REMARKS
MANITOWISH WTR CLOUDY    13   6  72 N15       30.34R WCI  -3
ARBOR VITAE    LGT SNOW  17  11  77 N14G22    30.34R WCI   3
WOODRUFF       LGT SNOW  17  11  77 N14G22    30.34R WCI   3
RHINELANDER    FLURRIES  15   7  70 NW12G17   30.33R WCI   2
EAGLE RIVER    LGT SNOW  14   9  79 N7        30.32R WCI   4
LAND O LAKES   LGT SNOW  14   8  78 N9        30.32R WCI   2
PHILLIPS       CLOUDY    13   7  76 NW5       30.37R WCI   6
TOMAHAWK       CLOUDY    15   5  64 NW12G18   30.36R WCI   2
MEDFORD        CLOUDY    15   7  68 NW16      30.37R WCI   0
MERRILL        CLOUDY    17   6  62 N13G20    30.36R WCI   3
$$

WIZ029-030-035-036-043>047-300600-
CENTRAL WISCONSIN

CITY           SKY/WX    TMP DP  RH WIND       PRES   REMARKS
WAUSAU         FLURRIES  18   9  68 N9G17     30.35R WCI   7
MOSINEE        CLOUDY    19  14  79 NW13      30.36R WCI   7
MARSHFIELD     CLOUDY    19   6  57 N17       30.38R WCI   4
STEVENS POINT  CLOUDY    19   7  60 N9        30.37R WCI   8
WAUPACA        MOCLDY    25   8  49 N14G21    30.37R WCI  13
WAUTOMA        CLOUDY    23  15  71 N13G21    30.37R WCI  11
WISC RAPIDS    CLOUDY    20   9  62 NW13G20   30.39R WCI   7
CAMP DOUGLAS   CLOUDY    21  10  63 NW13G23   30.41R WCI   9
$$

WIZ011>013-019>022-031-037>040-048>050-300600-
NORTHEAST WISCONSIN

CITY           SKY/WX    TMP DP  RH WIND       PRES   REMARKS
ANTIGO         CLOUDY    15   8  74 NW14G20   30.32R WCI   1
SHAWANO        CLOUDY    23  12  61 NW10      30.36R WCI  12
OCONTO         MOCLDY    19   6  57 MISG      30.35R
STURGEON BAY   CLOUDY    16   9  73 N14       30.35R WCI   1
GREEN BAY      CLOUDY    23  12  62 N9        30.34R WCI  13
MANITOWOC      MOCLDY    22  13  68 N9        30.33R WCI  12
APPLETON       CLOUDY    23  14  68 NW14      30.34R WCI  11
CLINTONVILLE   CLOUDY    23  12  63 N13G18    30.35R WCI  11
OSHKOSH        CLOUDY    23  13  65 N12       30.34R WCI  12
$$

WIZ032>034-041-042-053>061-300600-
SOUTHWEST WISCONSIN

CITY           SKY/WX    TMP DP  RH WIND       PRES   REMARKS
LA CROSSE      CLOUDY    23  10  57 N15       30.45R WCI  10
SPARTA         CLOUDY    22  10  61 NW10G18   30.44R WCI  11
VIROQUA        CLOUDY    21  13  71 N12       30.39R WCI   9
BOSCOBEL       CLOUDY    27  12  53 N13G23    30.42R WCI  16
PRAIRIE DU CHI PTCLDY    25  12  57 NW10      30.43R WCI  15
PLATTEVILLE    PTCLDY    26  14  61 NW13      30.37R WCI  15
$$

WIZ056-057-062-063-064-067-068-300600-
SOUTH CENTRAL WISCONSIN

CITY           SKY/WX    TMP DP  RH WIND       PRES   REMARKS
REEDSBURG      FLURRIES  24  15  68 N18       30.38R WCI  10
BARABOO/DELLS  CLOUDY    24  13  60 N10G18    30.36R WCI  14
LONE ROCK      MOCLDY    26  12  55 NW12      30.40R WCI  16
MINERAL POINT  CLOUDY    28  18  64 NW9       30.34R WCI  20
MADISON        CLOUDY    27  13  55 N14       30.34R WCI  16
MIDDLETON      CLOUDY    28  15  56 N17G23    30.35R WCI  16
WATERTOWN      CLOUDY    25  15  65 N14       30.33R WCI  13
MONROE         CLOUDY    28  18  64 N13G22    30.32R WCI  18
JANESVILLE     MOCLDY    30  14  51 N10G17    30.33R WCI  21
$$

WIZ051-052-058>065-066-070>072-300600-
SOUTHEAST WISCONSIN

CITY           SKY/WX    TMP DP  RH WIND       PRES   REMARKS
MILWAUKEE      MOCLDY    27  12  53 N16G30    30.31R WCI  15
WAUKESHA       CLOUDY    25  12  58 N12G17    30.32R WCI  14
MILWAUKEE/TIMM CLOUDY    27   9  46 N16G26    30.33R WCI  14
RACINE         CLOUDY    28  15  58 N21G28    30.32R WCI  15
BURLINGTON     CLOUDY    26  14  61 N15G22    30.32R WCI  13
KENOSHA        CLOUDY    28  13  53 N17G24    30.30R WCI  16
FOND DU LAC    CLOUDY    24  12  60 N8        30.34R WCI  15
SHEBOYGAN      CLOUDY    24   9  52 N12G21    30.32R WCI  13
WEST BEND      CLOUDY    25  10  54 N12       30.31R WCI  14
JUNEAU         CLOUDY    24  13  64 N14       30.34R WCI  11
$$

LSZ147-162-300600-
LAKE SUPERIOR

STATION/POSITION TIME  TEMP    WIND        PRES    WAVE
                       AIR SEA DIR/SP/G            HT/PER
                 (UTC) (F)     (DEG/KT/KT) (MB)    (FT/S)
DEVILS ISLAND    0500   14     330/ 12/ 15 1033.7R
PORT WING        0400   17     320/ 14/ 19 1031.8
SAXON HARBOR     0400   18     350/ 15/ 21 1031.2R
$$

LMZ867-665-643>646-300600-
LAKE MICHIGAN

STATION/POSITION TIME  TEMP    WIND        PRES    WAVE
                       AIR SEA DIR/SP/G            HT/PER
                 (UTC) (F)     (DEG/KT/KT) (MB)    (FT/S)
NORTHPORT PIER   0501   19     330/ 23/ 27 1026.8R
KEWAUNEE LAKESHO 0400   20     340/  9/ 14 1025.1R
SHEBOYGAN LAKESH 0500   25     350/ 18/ 23 1028.1R
PORT WASHINGTON  0400   27     350/  7/ 15 1026.4
MILWAUKEE LAKESH 0400   29     340/ 15/ 19   N/A
KENOSHA   LAKESH 0500   29     360/ 24/ 28 1025.4R
$$

TC  - TEMPERATURE IN CELSIUS
VSB - VISIBILITY IN STATUTE MILES
WCI - WIND CHILL INDEX
HX  - HEAT INDEX




USA.gov is the U.S. government's official web portal to all federal, state and local government web resources and services.